Home   Weather   Liezen   Past weeks

Flag for Austria Past Weather in Liezen, Styria, Austria — Yesterday and Last 2 Weeks

Now
38 °F

Overcast.


Feels Like: N/A
Forecast: 30 / 45 °F
Wind: N/A

Location: Aigen Im Ennstal

Current Time: Apr 29, 2017 at 12:01:22 am

Latest Report: Apr 28, 2017 at 11:00 pm


Visibility: 9 mi

Pressure: 30.06 "Hg (27.70 "Hg at 661m altitude)

Humidity: 80%

Dew Point: 32 °F

Location of LiezenLocation

Past Weather in Liezen — Graph

°F

Liezen Temperature Yesterday

Maximum temperature yesterday: 40 °F (at 5:00 pm)
Minimum temperature yesterday: 32 °F (at 8:00 am)
Average temperature yesterday: 36 °F

High & Low Weather Summary for the Past Weeks

 TemperatureHumidityPressure
High67 °F (Apr 25, 5:00 pm)100% (Apr 28, 8:00 am)30.60 "Hg (Apr 28, 8:00 am)
Low29 °F (Apr 21, 3:00 am)25% (Apr 24, 5:00 pm)29.61 "Hg (Apr 25, 5:00 pm)
Average42 °F70%30.08 "Hg
* Reported Apr 13 10:00 pm — Apr 28 10:00 pm, Liezen, Weather by CustomWeather, © 2017

Note: Actual official high and low records may vary slightly from our data, if they occured in-between our weather recording intervals... More about our weather records

Advertising

Liezen Weather History for the Previous 24 Hours

Scroll right to see more
 ConditionsComfort  
Time TempWeatherWind HumidityBarometerVisibility
10:00 pm
Fri, Apr 28
38 °FChilly.3 mph77%30.05 "HgN/A
9:00 pm39 °FChilly.5 mph73%30.01 "HgN/A
8:00 pm40 °FOvercast.5 mph73%29.96 "Hg12 mi
7:00 pm40 °FChilly.6 mph74%29.95 "HgN/A
6:00 pm40 °FChilly.7 mph73%29.93 "HgN/A
5:00 pm40 °FOvercast.5 mph77%29.89 "Hg9 mi
4:00 pm39 °FChilly.3 mph87%29.87 "HgN/A
3:00 pm37 °FChilly.1 mph88%29.87 "HgN/A
2:00 pm36 °FDrizzle. Low clouds.3 mph89%29.85 "Hg6 mi
1:00 pm38 °FFog.1 mph88%29.84 "HgN/A
12:00 pm36 °FFog.No wind88%29.84 "HgN/A
11:00 am37 °FLight rain. Low clouds.N/A84%29.84 "Hg5 mi
10:00 am34 °FChilly.1 mph92%29.85 "HgN/A
9:00 am34 °FChilly.No wind92%29.87 "HgN/A
8:00 am32 °FLow clouds.N/A100%29.84 "Hg4 mi
7:00 am33 °FLow clouds.N/A94%29.86 "Hg3 mi
6:00 am33 °FFog.No wind94%29.85 "HgN/A
5:00 am33 °FChilly.1 mph95%29.87 "HgN/A
4:00 am33 °FFog.1 mph94%29.88 "HgN/A
3:00 am33 °FFog.1 mph93%29.90 "HgN/A
2:00 am34 °FChilly.1 mph91%29.88 "HgN/A
1:00 am37 °FFog.1 mph90%29.89 "HgN/A
12:00 am37 °FFog.2 mph89%29.89 "HgN/A
Weather by CustomWeather, © 2017

See weather overviewHow to use our weather pages